Printer-friendly version

IAU Minor Planet Center

Minor Planet Center

MPEC 2006-S34 : 2006 SV19

The following Minor Planet Electronic Circular may be linked-to from your own Web pages, but must not otherwise be redistributed electronically.


Read MPEC 2006-S33 Read MPEC 2006-S35


M.P.E.C. 2006-S34                                Issued 2006 Sept. 20, 15:41 UT

     The Minor Planet Electronic Circulars contain information on unusual
         minor planets and routine data on comets.  They are published
   on behalf of Commission 20 of the International Astronomical Union by the
          Minor Planet Center, Smithsonian Astrophysical Observatory,
                          Cambridge, MA 02138, U.S.A.

                  Supported in part by the Brinson Foundation
                  Supported in part by the TABASGO Foundation
             Prepared using the Tamkin Foundation Computer Network

                              MPC@CFA.HARVARD.EDU
          URL http://cfa-www.harvard.edu/iau/mpc.html  ISSN 1523-6714

                                   2006 SV19

Observations:
     K06S19V* C2006 09 19.43893 03 53 30.12 +04 08 32.4          19.0 V ES034703
     K06S19V  C2006 09 19.44804 03 53 29.94 +04 08 28.7          18.7 V ES034703
     K06S19V  C2006 09 19.45715 03 53 29.79 +04 08 24.3          18.7 V ES034703
     K06S19V  C2006 09 19.46627 03 53 29.54 +04 08 21.1          18.8 V ES034703
     K06S19V  C2006 09 20.06993 03 53 20.05 +04 04 10.1                 ES034J95
     K06S19V  C2006 09 20.18458 03 53 17.59 +04 03 23.3          19.3 R ES034J95
     K06S19V  C2006 09 20.32548 03 53 15.51 +04 02 26.7          19.1 R ES034649
     K06S19V  C2006 09 20.34271 03 53 15.15 +04 02 19.9          19.1 R ES034649
     K06S19V  C2006 09 20.35881 03 53 14.81 +04 02 13.2          18.9 R ES034649
     K06S19V  C2006 09 20.46303 03 53 12.61 +04 01 31.2          18.8 V ES034703
     K06S19V  C2006 09 20.46355 03 53 12.55 +04 01 30.9          18.6 V ES034703
     K06S19V  C2006 09 20.46410 03 53 12.61 +04 01 30.6          18.5 V ES034703
     K06S19V  C2006 09 20.46552 03 53 12.51 +04 01 30.3          18.9 V ES034703

Observer details:
649 Powell Observatory, Louisburg.  Observer R. Trentman.  0.75-m Newtonian
    reflector + CCD.
703 Catalina Sky Survey.  Observers A. R. Gibbs, E. J. Christensen.  Measurers
    E. C. Beshore, E. J. Christensen, G. J. Garradd, A. R. Gibbs, A. D. Grauer,
    R. E. Hill, R. A. Kowalski, S. M. Larson, R. H. McNaught.  0.68-m Schmidt
    + CCD.
J95 Great Shefford.  Observer P. Birtwhistle.  0.40-m f/6.0 Schmidt-Cassegrain
    + CCD.

Orbital elements:
2006 SV19                                                Earth MOID = 0.0824 AU
Epoch 2006 Sept. 2.0 TT = JDT 2453980.5                 MPC
M  86.63230              (2000.0)            P               Q
n   0.69607369     Peri.  153.79400     -0.37700236     +0.91725800
a   1.2609540      Node    93.83077     -0.87079918     -0.30376046
e   0.3222267      Incl.    7.39836     -0.31555982     -0.25761859
P   1.42           H   17.6           G   0.15
From 13 observations 2006 Sept. 19-20.

Ephemeris:
2006 SV19                a,e,i = 1.26, 0.32, 7                   q = 0.8546
Date    TT    R. A. (2000) Decl.     Delta      r     Elong.  Phase     V
2006 09 12    03 53.70   +04 54.9    0.685    1.406   110.9    42.0    19.2
2006 09 22    03 52.65   +03 50.8    0.648    1.445   120.6    36.7    18.9
2006 10 02    03 45.21   +02 34.6    0.615    1.482   131.6    30.3    18.7
2006 10 12    03 31.21   +01 14.4    0.591    1.516   143.8    22.9    18.5
2006 10 22    03 11.62   +00 02.7    0.583    1.546   156.0    15.2    18.2
2006 11 01    02 49.13   -00 44.6    0.596    1.573   163.7    10.2    18.1
2006 11 11    02 27.50   -00 56.1    0.631    1.597   159.7    12.4    18.4
2006 11 21    02 09.90   -00 30.1    0.687    1.617   149.1    18.3    18.8
2006 12 01    01 58.02   +00 28.1    0.763    1.634   137.9    23.9    19.2
2006 12 11    01 52.02   +01 49.9    0.851    1.647   127.4    28.3    19.6
2006 12 21    01 51.24   +03 27.5    0.950    1.657   117.9    31.6    19.9
2006 12 31    01 54.84   +05 15.4    1.055    1.664   109.4    33.9    20.2
2007 01 10    02 01.98   +07 09.4    1.163    1.667   101.6    35.3    20.5
2007 01 20    02 12.00   +09 06.5    1.271    1.667    94.4    36.1    20.7
2007 01 30    02 24.41   +11 04.7    1.378    1.663    87.8    36.3    20.9
2007 02 09    02 38.82   +13 01.9    1.481    1.656    81.7    36.1    21.0
2007 02 19    02 54.99   +14 56.5    1.579    1.645    75.9    35.6    21.1
2007 03 01    03 12.75   +16 46.9    1.670    1.631    70.4    34.9    21.2
2007 03 11    03 31.95   +18 31.4    1.754    1.614    65.3    34.0    21.3
2007 03 21    03 52.55   +20 08.7    1.829    1.593    60.4    32.9    21.3

Timothy B. Spahr             (C) Copyright 2006 MPC           M.P.E.C. 2006-S34

Read MPEC 2006-S33 Read MPEC 2006-S35


Our Web policy. Index to the CBAT/MPC/ICQ pages.


Valid HTML 4.01!